Regional Weather Roundup
Issued by NWS Portland, ME

Current Version | Previous Version | Text Only | Print | Product List | Glossary Off
Versions: 1 2 3 4 5 6 7 8 9 10 11 12 13 14 15 16 17 18 19 20 21 22 23 24 25 26 27 28 29 30 31 32 33 34 35 36 37 38 39 40 41 42 43 44 45 46 47 48 49 50
000 ASUS41 KGYX 211410 RWRGYX WEATHER ROUNDUP FOR MAINE AND NEW HAMPSHIRE NATIONAL WEATHER SERVICE GRAY ME 1000 AM EDT SAT OCT 21 2017 MEZ002-005-006-010-012-015-018-020-021-024-026-027-029-211500- MAINE CITY SKY/WX TMP DP RH WIND PRES REMARKS PORTLAND MOSUNNY 61 40 45 CALM 30.25S SANFORD SUNNY 65 38 36 W7 30.26R BAR HARBOR SUNNY 58 38 47 VRB3 30.26S WISCASSET SUNNY 60 44 55 CALM 30.26R ROCKLAND SUNNY 62 42 47 CALM 30.25S FRYEBURG NOT AVBL LEWISTONAUBURN SUNNY 57 42 57 CALM 30.25S AUGUSTA SUNNY 60 40 47 W3 30.25R WATERVILLE MOSUNNY 55 41 59 CALM 30.22R BANGOR MOSUNNY 56 38 50 SW5 30.26R GREENVILLE N/A 53 39 59 NW9 30.21R MILLINOCKET SUNNY 50 37 61 CALM 30.25R HOULTON SUNNY 48 34 58 N13 30.22S PRESQUE ISLE NOT AVBL FRENCHVILLE SUNNY 40 27 59 NW12 30.22R CARIBOU NOT AVBL $$ NHZ002-005-008-009-011-012-014-211500- NEW HAMPSHIRE CITY SKY/WX TMP DP RH WIND PRES REMARKS PORTSMOUTH MOSUNNY 62 38 41 W6 30.25R ROCHESTER SUNNY 62 38 40 NW5 30.26R NASHUA SUNNY 59 44 57 CALM 30.28S MANCHESTER SUNNY 56 39 53 CALM 30.27R CONCORD SUNNY 54 40 59 CALM 30.28R LACONIA SUNNY 60 38 43 SW7 30.27R PLYMOUTH FAIR 51 38 60 CALM 30.27S BERLIN SUNNY 50 39 66 CALM 30.26S WHITEFIELD SUNNY 49 39 68 CALM 30.28S JAFFREY SUNNY 58 39 49 S8 30.30S KEENE SUNNY 52 43 71 CALM 30.32S LEBANON SUNNY 50 39 66 CALM 30.29S MT WASHINGTON PTSUNNY 41 37 87 NW46 N/A $$ VTZ005-007-008-211500- VERMONT CITY SKY/WX TMP DP RH WIND PRES REMARKS ST JOHNSBURY N/A 45 38 76 MISG 30.28S BURLINGTON SUNNY 60 38 43 S10 30.26S $$ MAZ007-012-024-CTZ003-RIZ002-NYZ038-NYZ072-211500- SOUTHERN NEW ENGLAND AND NY CITY SKY/WX TMP DP RH WIND PRES REMARKS BOSTON MOSUNNY 63 40 42 SW5 30.28S WORCESTER SUNNY 60 31 33 W13 30.31R NANTUCKET N/A 64 50 60 S6 30.30R PROVIDENCE SUNNY 63 43 48 W5 30.31R HARTFORD MOSUNNY 56 42 59 CALM 30.32F ALBANY MOSUNNY 55 40 56 CALM 30.33S NEW YORK CITY MOSUNNY 65 46 50 CALM 30.33S $$ ANZ081-ANZ082-ANZ150-NHZ014-MEZ023>029-211500- COASTAL MARINE OBSERVATIONS STATION/POSITION TIME TEMP WIND PRES WAVE AIR SEA DIR/SP/G HT/PER (UTC) (F) (DEG/KT/KT) (MB) (FT/S) MOUNT DESERT ROC 1400 54 250/ 4/ 5 1024.9R MATINICUS ROCK 1300 55 310/ 4/ 5 1024.0R ISLE OF SHOALS 1300 56 250/ 7/ 8 1024.3R JEFFREYS LEDGE 1336 59 N/A 1/ 9 GEORGES BANK BUO 1250 58 57 1024.2 3/ 6 $$ .............KEY.............. WCI - WIND CHILL TC - TEMPERATURE IN CELSIUS VSB - VISIBILITY IN MILES HX - HEAT INDEX FAIR- INDICATES FEW OR NO CLOUDS BELOW 12,000 FT, WITH NO SIGNIFICANT WEATHER AND/OR OBSTRUCTIONS TO VISIBILITY.

USA.gov is the U.S. government's official web portal to all federal, state and local government web resources and services.